STARLINK-32211 (60270 NORAD) Tracking and Keplerian Element Data

This shows tracking and keplerian element data for the satellite.

Feedback or suggestion? Click here.




ElementValue
Catalog60270
NameSTARLINK-32211
Epoch Orbit1312
Epoch Day286.68313463
Epoch Year2024
RAAN278.9502
Inclination53.1574
Eccentricity0.0001062
Argument of Perigee131.2659
Mean Anonmoly228.8435
Mean Motion15.34224036
Decay Rate0.0002747
L11 60270U 24131R 24286.68313463 .00027470 00000+0 82576-3 0 9992
L22 60270 53.1574 278.9502 0001062 131.2659 228.8435 15.34224036 13120



Live tracking and technical data element details for STARLINK-32211 (NORAD 60270). STARLINK-32211 can be tracked NOW for your location showing map with azimuth and elevation plus other details from your city location.







IsCatalogInMostPopularTable: catalog: 60270, numindb: 11
Update: records affected: 1



GetName: 60270 STARLINK-32211

Hit Count: updated at: Thu, 23 Jan 2025 14:24:35 GMT